Regional Weather Roundup
Issued by NWS

Home | Current Version | Previous Version | Graphics & Text | Print | Product List | Glossary Off
Versions: 1 2 3 4 5 6 7 8 9 10 11 12 13 14 15 16 17 18 19 20 21 22 23 24 25 26 27 28 29 30 31 32 33 34 35 36 37 38 39 40 41 42 43 44 45 46 47 48 49 50

000
ASUS43 KTOP 300608
RWRKS

WEATHER ROUNDUP FOR KANSAS
NATIONAL WEATHER SERVICE GOODLAND KS
1200 AM CST FRI JAN 30 2015

NOTE:  "FAIR" INDICATES FEW OR NO CLOUDS BELOW 12,000 FEET WITH NO
SIGNIFICANT WEATHER AND/OR OBSTRUCTIONS TO VISIBILITY.

KSZ001>006-013>018-027>032-041>047-300700-
NORTHWEST KANSAS

CITY           SKY/WX    TMP DP  RH WIND       PRES   REMARKS
GOODLAND       MOCLDY    31  22  69 S10       30.45F WCI  22
6HR MIN TEMP:  26; 6HR MAX TEMP:  39;

HAYS           PTCLDY    23  10  58 NW3       30.51S
HILL CITY      CLEAR     18  12  77 W3        30.51S
6HR MIN TEMP:  18; 6HR MAX TEMP:  39;

RUSSELL        MOCLDY    28  21  75 CALM      30.50F
6HR MIN TEMP:  26; 6HR MAX TEMP:  40;

$$

KSZ061>065-074>080-084>089-300700-
SOUTHWEST KANSAS

CITY           SKY/WX    TMP DP  RH WIND       PRES   REMARKS
DODGE CITY     CLEAR     27  19  72 SW7       30.52R
6HR MIN TEMP:  24; 6HR MAX TEMP:  37;

ELKHART          N/A     36  22  57 S7          N/A
GARDEN CITY    PTCLDY    28  18  66 SE3       30.49F
6HR MIN TEMP:  25; 6HR MAX TEMP:  40;

LIBERAL        PTCLDY    28  16  59 CALM      30.52F
PRATT          CLEAR     27  21  80 CALM      30.54R
$$

KSZ066>073-081>083-090>101-300700-
SOUTHEAST KANSAS

CITY           SKY/WX    TMP DP  RH WIND       PRES   REMARKS
CHANUTE        CLEAR     25  22  88 CALM      30.53S
6HR MIN TEMP:  25; 6HR MAX TEMP:  41;

COFFEYVILLE    CLEAR     30  25  81 N3        30.54R
6HR MIN TEMP:  28; 6HR MAX TEMP:  44;

HUTCHINSON     PTCLDY    25  19  78 W3        30.53R
6HR MIN TEMP:  23; 6HR MAX TEMP:  44;

MEDICINE LODGE   N/A     26  21  81 N6        30.54R
NEWTON         CLEAR     32  19  59 NE6       30.54R
PARSONS        CLEAR     26  23  88 NE3       30.54R
6HR MIN TEMP:  26; 6HR MAX TEMP:  43;

WICHITA INTL   PTCLDY    31  22  69 CALM      30.53R
6HR MIN TEMP:  29; 6HR MAX TEMP:  46;

WICHITA JABRA  CLEAR     30  23  75 NE6       30.52S
6HR MIN TEMP:  30; 6HR MAX TEMP:  40;

WICHITA MCCONL CLEAR     33  24  70 NE1       30.53R
WINFIELD       CLEAR     27  20  75 CALM      30.55R
6HR MIN TEMP:  27; 6HR MAX TEMP:  42;

$$

KSZ007>012-019>026-033>040-048>060-102>105-300700-
NORTHEAST KANSAS

CITY           SKY/WX    TMP DP  RH WIND       PRES   REMARKS
CONCORDIA      CLEAR     28  22  78 CALM      30.53R
6HR MIN TEMP:  24; 6HR MAX TEMP:  40;

EMPORIA        CLEAR     27  23  85 NW3       30.54R
6HR MIN TEMP:  26; 6HR MAX TEMP:  38;

LAWRENCE       CLEAR     21  18  88 N3        30.54S
6HR MIN TEMP:  18; 6HR MAX TEMP:  37;

MANHATTAN      CLEAR     20  18  92 CALM      30.55R
6HR MIN TEMP:  19; 6HR MAX TEMP:  41;

MARYSVILLE     CLEAR     19  18  93 CALM      30.54R
OLATHE IND     CLEAR     25  21  85 N7        30.53R
6HR MIN TEMP:  22; 6HR MAX TEMP:  37;

OLATHE EXE     CLEAR     30  23  75 N6        30.51R
6HR MIN TEMP:  30; 6HR MAX TEMP:  39;

SALINA         CLEAR     27  20  75 CALM      30.54R
6HR MIN TEMP:  24; 6HR MAX TEMP:  43;

TOPEKA BILLARD CLEAR     20  19  96 CALM      30.55R
6HR MIN TEMP:  20; 6HR MAX TEMP:  38;

TOPEKA FORBES  CLEAR     25  20  81 N5        30.53R
6HR MIN TEMP:  24; 6HR MAX TEMP:  40;

$$



USA.gov is the U.S. government's official web portal to all federal, state and local government web resources and services.